TianYi 6
1 43158U 18008D 23215.67840287 .00018879 00000-0 76808-3 0 9998
2 43158 97.3002 264.0015 0011928 141.5951 218.6138 15.24498171305659
S-Net D
1 43186U 18014G 23215.72618830 .00004595 00000-0 36552-3 0 9991
2 43186 97.6206 118.6213 0016373 19.8321 340.3536 15.00800737300682
S-Net B
1 43187U 18014H 23215.72750490 .00004644 00000-0 36931-3 0 9997
2 43187 97.6207 118.5480 0016931 17.3736 342.8064 15.00795701300689
S-Net A
1 43188U 18014J 23215.72754336 .00004634 00000-0 36855-3 0 9995
2 43188 97.6211 118.6393 0016855 17.6099 342.5706 15.00798100300685
S-Net C
1 43189U 18014K 23215.73008268 .00004653 00000-0 36995-3 0 9999
2 43189 97.6212 118.5269 0017771 12.6959 347.4709 15.00791000299233
CubeBel-1
1 43666U 18083E 23215.77791716 .00036895 00000-0 88367-3 0 9999
2 43666 97.3762 247.7543 0006112 312.2833 47.7894 15.41324228264525
Changshagaoxin
1 43669U 18083H 23215.73509517 .00030287 00000-0 83235-3 0 9992
2 43669 97.3760 242.0622 0004408 320.4295 39.6627 15.37155970264245
Ten-Koh
1 43677U 18084G 23215.39265212 .00003063 00000-0 29772-3 0 9993
2 43677 98.0196 356.1690 0014792 357.5791 2.5353 14.93285977259102
PO-101
1 43678U 18084H 23215.68995401 .00002212 00000-0 21524-3 0 9998
2 43678 98.0292 0.6368 0009704 13.0219 347.1249 14.93594609259353
QO-100
1 43700U 18090A 23215.02621064 .00000134 00000-0 00000+0 0 9993
2 43700 0.0248 96.1254 0002441 73.8584 176.5810 1.00270575 17400
Reaktor Hello World
1 43743U 18096AA 23214.77314792 .00103865 00000-0 10207-2 0 9992
2 43743 97.3150 303.3295 0005859 359.3334 0.7917 15.65675970261442
MinXSS-2
1 43758U 18099A 23215.09390135 .00007506 00000-0 57178-3 0 9996
2 43758 97.6025 278.2671 0017139 332.2865 27.7445 15.02236703254785
AO-95
1 43770U 18099N 23214.71867364 .00006427 00000-0 51562-3 0 9993
2 43770 97.5708 274.9984 0014081 357.9007 2.2156 15.00344385254580
RANGE-B
1 43772U 18099Q 23214.73436295 .00008565 00000-0 65409-3 0 9992
2 43772 97.5678 277.9214 0005958 286.4632 73.5938 15.02196324254657
RANGE-A
1 43773U 18099R 23215.74055077 .00003478 00000-0 29257-3 0 9999
2 43773 97.5606 273.9348 0011973 323.0766 36.9632 14.98842081254682
MOVE-II
1 43780U 18099Y 23215.73350541 .00012034 00000-0 85785-3 0 9996
2 43780 97.5675 278.7751 0008167 358.6306 1.4897 15.04692440254884
SNUSat 2
1 43782U 18099AA 23215.68742459 .00004995 00000-0 40374-3 0 9997
2 43782 97.5671 276.4690 0012046 298.6068 61.3944 15.00188903254752
SnugLite
1 43784U 18099AC 23214.75221859 .00005343 00000-0 42527-3 0 9992
2 43784 97.5588 275.2337 0005661 316.8992 43.1788 15.00787901254656
ITASat 1
1 43786U 18099AE 23215.13215922 .00005669 00000-0 46002-3 0 9994
2 43786 97.5772 276.4387 0013875 339.8359 20.2315 14.99960339254689
EAGLET 1
1 43790U 18099AJ 23215.12136904 .00004796 00000-0 39571-3 0 9993
2 43790 97.5723 276.8589 0010331 339.0653 21.0146 14.99428515254418
ESEO
1 43792U 18099AL 23215.72835572 .00002803 00000-0 24287-3 0 9993
2 43792 97.5676 275.7801 0011583 333.6385 26.4247 14.97853317254505
CSIM
1 43793U 18099AM 23215.74854425 .00009706 00000-0 68438-3 0 9999
2 43793 97.5727 280.1760 0014381 328.6659 31.3709 15.05103379254733
Astrocast 0.1
1 43798U 18099AS 23215.74054332 .00009873 00000-0 72778-3 0 9990
2 43798 97.5802 279.4530 0011047 304.4149 55.6031 15.03463117254914
JO-97
1 43803U 18099AX 23215.10920312 .00007156 00000-0 55790-3 0 9994
2 43803 97.5731 276.5015 0012852 307.4152 52.5902 15.01420363254737
Suomi 100
1 43804U 18099AY 23215.38373996 .00006568 00000-0 51640-3 0 9991
2 43804 97.5723 276.5304 0018643 318.8050 41.1767 15.01051983254772
Al Farabi 2
1 43805U 18099AZ 23215.40269520 .00008626 00000-0 64559-3 0 9992
2 43805 97.5554 277.6510 0011766 303.4019 56.6080 15.02919004254845
CHOMPTT
1 43855U 18104G 23215.23493686 .00030961 00000-0 70222-3 0 9998
2 43855 85.0310 134.0974 0014344 129.4277 230.8248 15.42811304257820
ISAT
1 43879U 18111D 23214.97334058 .00008427 00000-0 62834-3 0 9991
2 43879 97.6386 118.7873 0015096 12.3831 347.7762 15.03037763249349
UWE-4
1 43880U 18111E 23215.30846897 .00006829 00000-0 51279-3 0 9995
2 43880 97.6284 119.7692 0019245 18.8098 341.3834 15.02782821249446
Sparrow
1 43881U 18111F 23215.70128746 .00008413 00000-0 62170-3 0 9999
2 43881 97.6430 120.9076 0012378 50.1976 310.0337 15.03407018249527
Lume 1
1 43908U 18111AJ 23215.20056185 .00044193 00000-0 78665-3 0 9992
2 43908 97.1316 97.8623 0012506 40.6169 319.6013 15.49926310256666
FO-99
1 43937U 19003F 23215.56576503 .00083299 00000-0 10492-2 0 9998
2 43937 97.0807 242.3784 0013069 106.8096 253.4596 15.59254066253410
AstroCast 0.2
1 44083U 19018F 23215.71957385 .00102364 00000-0 14429-2 0 9994
2 44083 97.2608 276.0843 0003800 88.1392 272.0298 15.56258101241792
AISTechSat 3
1 44103U 19018AB 23215.70729107 .00032734 00000-0 72210-3 0 9991
2 44103 97.2488 273.9095 0009864 104.7813 255.4529 15.43782482241832
AISat 1
1 44104U 19018AC 23215.78394158 .00025924 00000-0 46526-3 0 9998
2 44104 97.3738 308.0630 0039676 85.5574 275.0208 15.48986497243089
Prox-1
1 44339U 19036A 23214.37818931 .00007617 00000-0 15101-2 0 9995
2 44339 24.0015 110.7509 0009430 55.8076 304.3310 14.60006218218448
Move-IIb
1 44398U 19038N 23215.49991760 .00070379 00000-0 14270-2 0 9999
2 44398 97.6604 200.7542 0016464 118.4450 241.8460 15.45992351225969
SONATE
1 44400U 19038Q 23215.44336426 .00011385 00000-0 49483-3 0 9997
2 44400 97.6865 194.1014 0021747 143.0462 217.2276 15.22240177225429
BeeSat 9
1 44412U 19038AC 23215.39747934 .00027152 00000-0 86855-3 0 9997
2 44412 97.6760 197.6709 0017302 133.0676 227.2017 15.32248067225389
JAISAT-1
1 44419U 19038F 23214.75045576 .00029788 00000-0 94538-3 0 9990
2 44419 97.6751 198.1020 0016610 131.4807 228.7863 15.32493361225662
Taurus 1
1 44530U 19059C 23215.74857546 .00004565 00000-0 11768-2 0 9994
2 44530 98.5586 324.3029 0011506 307.3802 52.6344 14.50506118205538
Duchifat 3
1 44854U 19089C 23215.26089423 .00010428 00000-0 68639-3 0 9999
2 44854 36.9610 169.7927 0008748 329.0996 30.9232 15.07014200199938
OPS-SAT
1 44878U 19092F 23214.78190366 .00032086 00000-0 89095-3 0 9997
2 44878 97.4734 44.2043 0007490 333.3382 26.7476 15.36805423200943
TO-108
1 44881U 19093C 23215.74262589 .00001278 00000-0 16494-3 0 9998
2 44881 97.8603 293.3848 0013310 284.3660 75.6076 14.82645973195841
FloripaSat 1
1 44885U 19093G 23215.75276952 .00004400 00000-0 50680-3 0 9997
2 44885 97.8673 296.3966 0012148 284.6585 75.3283 14.86180700196016
RS-44
1 44909U 19096E 23213.80306792 .00000013 00000-0 -15215-5 0 9991
2 44909 82.5242 317.6371 0218490 80.4262 282.1453 12.79722108168048
BY70-2
1 45857U 20042B 23215.78016100 .00024045 00000-0 23508-2 0 9998
2 45857 97.9249 295.9002 0009380 199.3686 160.7178 14.92305342166635
UPMSat 2
1 46276U 20061E 23215.10251445 .00010533 00000-0 43397-3 0 9990
2 46276 97.3439 281.7231 0002477 130.5653 229.5801 15.24272842161438
AmicalSat
1 46287U 20061R 23214.73167033 .00015031 00000-0 67544-3 0 9997
2 46287 97.3975 280.3938 0000516 282.5279 77.5899 15.21237416160788
